QPF
0.03 0.02 0.03 0.04 0.04 0.04 0.03 0.04 0.03 0.03 0.04 0.06 0.07 0.06 0.05 0.03 0.03 0.02 0.02 0.04 0.08 0.06 0.03 0.02 0.02 0.02 0.02 0.02 0.03 0.03 0.04 0.05 0.07 0.08 0.07 0.05 0.04 0.04
0.02 0.02 0.02 0.03 0.04 0.03 0.03 0.03 0.03 0.03 0.03 0.04 0.04 0.04 0.04 0.04 0.03 0.02 0.02 0.05 0.11 0.09 0.04 0.02 0.01 0.01 0.01 0.01 0.02 0.02 0.02 0.03 0.04 0.06 0.07 0.05 0.04 0.04
0.02 0.02 0.02 0.02 0.03 0.04 0.04 0.02 0.02 0.01 0.03 0.04 0.04 0.03 0.03 0.04 0.03 0.02 0.01 0.04 0.08 0.08 0.04 0.01 0.01 0.01 0.01 0.01 0.01 0.02 0.02 0.02 0.03 0.05 0.07 0.05 0.03 0.03
0.04 0.04 0.02 0.02 0.02 0.03 0.04 0.03 0.03 0.03 0.02 0.03 0.03 0.03 0.02 0.03 0.03 0.02 0.01 0.02 0.04 0.05 0.03 0.01 0.01 0.01 0.01 0.01 0.01 0.02 0.03 0.02 0.02 0.03 0.05 0.04 0.04 0.04
0.02 0.03 0.04 0.03 0.02 0.02 0.03 0.04 0.05 0.04 0.03 0.02 0.02 0.02 0.02 0.02 0.03 0.02 0.01 0.01 0.01 0.02 0.01 0.01 0.00 0.00 0.00 0.01 0.01 0.02 0.03 0.03 0.02 0.02 0.02 0.03 0.03 0.03
0.02 0.03 0.03 0.04 0.03 0.02 0.03 0.03 0.03 0.03 0.02 0.02 0.01 0.01 0.02 0.01 0.02 0.02 0.02 0.01 0.01 0.01 0.01 0.01 0.01 0.01 0.01 0.01 0.02 0.02 0.03 0.03 0.02 0.02 0.01 0.02 0.02 0.02
0.04 0.04 0.03 0.04 0.04 0.03 0.03 0.02 0.02 0.02 0.01 0.01 0.01 0.01 0.01 0.00 0.01 0.02 0.02 0.02 0.01 0.01 0.01 0.01 0.01 0.01 0.01 0.01 0.01 0.02 0.03 0.02 0.02 0.02 0.01 0.01 0.01 0.02
0.06 0.05 0.04 0.04 0.04 0.03 0.03 0.02 0.02 0.02 0.01 0.01 0.00 0.00 0.00 0.00 0.01 0.01 0.02 0.02 0.02 0.02 0.01 0.01 0.01 0.01 0.01 0.01 0.02 0.02 0.03 0.02 0.02 0.02 0.01 0.01 0.01 0.01
0.06 0.05 0.04 0.03 0.04 0.03 0.02 0.02 0.02 0.03 0.03 0.02 0.01 0.00 0.00 0.01 0.01 0.01 0.01 0.01 0.02 0.02 0.01 0.01 0.01 0.01 0.02 0.02 0.02 0.02 0.03 0.02 0.02 0.01 0.01 0.01 0.00 0.01
0.05 0.05 0.05 0.05 0.04 0.03 0.03 0.02 0.01 0.01 0.03 0.03 0.02 0.01 0.01 0.01 0.01 0.01 0.01 0.01 0.01 0.01 0.01 0.01 0.01 0.01 0.01 0.01 0.02 0.02 0.02 0.02 0.01 0.01 0.01 0.01 0.01 0.01
0.06 0.06 0.06 0.06 0.06 0.05 0.04 0.02 0.01 0.01 0.02 0.02 0.02 0.02 0.02 0.01 0.01 0.01 0.01 0.01 0.00 0.01 0.01 0.01 0.00 0.01 0.01 0.01 0.01 0.02 0.02 0.02 0.02 0.02 0.01 0.01 0.01 0.01
0.05 0.06 0.06 0.06 0.06 0.07 0.04 0.03 0.01 0.01 0.01 0.01 0.02 0.02 0.03 0.04 0.03 0.01 0.01 0.01 0.01 0.01 0.01 0.01 0.00 0.00 0.01 0.01 0.01 0.01 0.01 0.02 0.02 0.02 0.01 0.01 0.01 0.01
0.05 0.05 0.05 0.05 0.06 0.07 0.06 0.03 0.02 0.02 0.02 0.01 0.02 0.02 0.02 0.03 0.03 0.03 0.02 0.02 0.01 0.01 0.01 0.01 0.00 0.01 0.00 0.01 0.01 0.01 0.01 0.02 0.02 0.02 0.02 0.01 0.01 0.01
0.04 0.04 0.04 0.04 0.05 0.06 0.07 0.06 0.05 0.04 0.03 0.02 0.01 0.01 0.01 0.02 0.03 0.03 0.04 0.03 0.02 0.02 0.01 0.01 0.01 0.01 0.01 0.01 0.00 0.01 0.01 0.02 0.02 0.03 0.03 0.03 0.02 0.02
0.04 0.04 0.05 0.05 0.05 0.04 0.05 0.05 0.06 0.06 0.04 0.03 0.02 0.02 0.02 0.03 0.03 0.04 0.04 0.05 0.04 0.03 0.02 0.02 0.02 0.02 0.02 0.01 0.01 0.01 0.02 0.02 0.02 0.02 0.02 0.03 0.03 0.02
0.04 0.05 0.05 0.05 0.05 0.04 0.04 0.05 0.05 0.05 0.05 0.04 0.03 0.02 0.02 0.02 0.02 0.02 0.02 0.02 0.03 0.03 0.04 0.04 0.03 0.03 0.03 0.03 0.03 0.03 0.03 0.02 0.02 0.01 0.01 0.01 0.02 0.02
0.04 0.04 0.05 0.05 0.06 0.05 0.04 0.05 0.06 0.06 0.06 0.04 0.03 0.02 0.02 0.01 0.01 0.01 0.01 0.02 0.01 0.01 0.02 0.04 0.04 0.04 0.04 0.03 0.03 0.02 0.03 0.02 0.02 0.02 0.02 0.01 0.01 0.01
0.04 0.04 0.04 0.05 0.05 0.06 0.06 0.06 0.06 0.07 0.07 0.06 0.05 0.04 0.02 0.02 0.02 0.01 0.01 0.01 0.02 0.02 0.02 0.02 0.03 0.03 0.03 0.03 0.02 0.02 0.02 0.02 0.02 0.02 0.01 0.01 0.01 0.01
0.03 0.03 0.03 0.04 0.05 0.05 0.06 0.07 0.07 0.07 0.07 0.07 0.06 0.06 0.04 0.03 0.02 0.02 0.01 0.01 0.01 0.02 0.02 0.02 0.02 0.03 0.03 0.02 0.02 0.01 0.01 0.01 0.01 0.01 0.01 0.01 0.01 0.01
0.03 0.03 0.03 0.03 0.04 0.04 0.05 0.06 0.06 0.07 0.07 0.07 0.06 0.06 0.05 0.05 0.05 0.04 0.03 0.02 0.02 0.02 0.03 0.03 0.03 0.03 0.03 0.03 0.02 0.01 0.01 0.01 0.01 0.01 0.01 0.01 0.01 0.01
0.01 0.02 0.03 0.03 0.03 0.04 0.04 0.04 0.06 0.06 0.06 0.06 0.05 0.05 0.05 0.05 0.05 0.05 0.04 0.04 0.04 0.03 0.03 0.03 0.03 0.03 0.03 0.02 0.02 0.01 0.01 0.01 0.01 0.01 0.02 0.02 0.02 0.01
0.01 0.01 0.02 0.03 0.03 0.03 0.03 0.04 0.04 0.06 0.06 0.06 0.07 0.07 0.06 0.05 0.04 0.04 0.03 0.03 0.03 0.02 0.02 0.03 0.02 0.02 0.02 0.03 0.03 0.02 0.01 0.01 0.01 0.02 0.02 0.02 0.03 0.02
0.01 0.01 0.01 0.02 0.02 0.03 0.03 0.03 0.04 0.05 0.06 0.07 0.09 0.09 0.08 0.07 0.05 0.03 0.03 0.02 0.02 0.02 0.02 0.02 0.02 0.02 0.02 0.02 0.03 0.02 0.02 0.02 0.02 0.02 0.02 0.02 0.02 0.02
MSLP
1020.18 1020.45 1020.75 1021.05 1021.33 1021.55 1021.70 1021.76 1021.74 1021.64 1021.48 1021.27 1021.04 1020.80 1020.56 1020.33 1020.10 1019.89 1019.70 1019.54 1019.42 1019.35 1019.32 1019.34 1019.39 1019.45 1019.52 1019.55 1019.55 1019.50 1019.39 1019.24 1019.05 1018.84 1018.64 1018.44 1018.25 1018.07
1020.06 1020.30 1020.56 1020.82 1021.06 1021.26 1021.40 1021.47 1021.48 1021.42 1021.31 1021.15 1020.95 1020.73 1020.49 1020.24 1019.99 1019.75 1019.52 1019.32 1019.18 1019.08 1019.05 1019.07 1019.13 1019.22 1019.31 1019.38 1019.41 1019.39 1019.32 1019.19 1019.03 1018.84 1018.65 1018.47 1018.29 1018.12
1019.97 1020.19 1020.41 1020.63 1020.84 1021.02 1021.16 1021.25 1021.28 1021.27 1021.21 1021.11 1020.96 1020.78 1020.56 1020.31 1020.04 1019.77 1019.50 1019.26 1019.06 1018.92 1018.84 1018.83 1018.87 1018.94 1019.02 1019.09 1019.13 1019.13 1019.09 1018.99 1018.86 1018.72 1018.56 1018.40 1018.25 1018.09
1019.90 1020.10 1020.30 1020.50 1020.68 1020.84 1020.98 1021.09 1021.16 1021.19 1021.18 1021.13 1021.04 1020.90 1020.71 1020.48 1020.21 1019.92 1019.62 1019.33 1019.08 1018.87 1018.73 1018.64 1018.61 1018.63 1018.66 1018.70 1018.73 1018.73 1018.70 1018.63 1018.54 1018.44 1018.33 1018.22 1018.11 1017.99
1019.79 1020.00 1020.19 1020.37 1020.54 1020.70 1020.84 1020.95 1021.05 1021.12 1021.16 1021.16 1021.12 1021.03 1020.88 1020.68 1020.43 1020.13 1019.81 1019.48 1019.17 1018.90 1018.67 1018.50 1018.38 1018.31 1018.26 1018.24 1018.22 1018.20 1018.16 1018.12 1018.07 1018.01 1017.96 1017.90 1017.85 1017.79
1019.63 1019.84 1020.04 1020.21 1020.38 1020.53 1020.66 1020.78 1020.89 1020.98 1021.05 1021.09 1021.10 1021.05 1020.95 1020.79 1020.56 1020.29 1019.97 1019.62 1019.28 1018.95 1018.64 1018.38 1018.16 1017.98 1017.84 1017.73 1017.65 1017.58 1017.53 1017.49 1017.46 1017.45 1017.45 1017.46 1017.47 1017.48
1019.38 1019.59 1019.79 1019.97 1020.13 1020.27 1020.39 1020.51 1020.61 1020.70 1020.79 1020.85 1020.89 1020.88 1020.82 1020.71 1020.53 1020.29 1020.00 1019.67 1019.31 1018.95 1018.59 1018.25 1017.94 1017.67 1017.43 1017.22 1017.06 1016.94 1016.85 1016.80 1016.78 1016.80 1016.85 1016.92 1016.99 1017.05
1019.02 1019.24 1019.45 1019.62 1019.77 1019.89 1020.00 1020.09 1020.18 1020.26 1020.33 1020.40 1020.45 1020.47 1020.45 1020.39 1020.26 1020.08 1019.84 1019.55 1019.22 1018.86 1018.48 1018.09 1017.72 1017.36 1017.04 1016.75 1016.51 1016.32 1016.18 1016.11 1016.09 1016.12 1016.20 1016.31 1016.43 1016.54
1018.58 1018.80 1019.00 1019.17 1019.31 1019.41 1019.49 1019.56 1019.61 1019.66 1019.71 1019.76 1019.81 1019.84 1019.86 1019.84 1019.77 1019.66 1019.49 1019.27 1018.99 1018.66 1018.29 1017.90 1017.49 1017.09 1016.70 1016.34 1016.02 1015.77 1015.58 1015.47 1015.43 1015.46 1015.55 1015.67 1015.82 1015.97
1018.10 1018.31 1018.50 1018.66 1018.78 1018.87 1018.93 1018.96 1018.97 1018.99 1019.00 1019.02 1019.05 1019.09 1019.12 1019.13 1019.12 1019.07 1018.98 1018.83 1018.62 1018.35 1018.02 1017.65 1017.25 1016.82 1016.40 1015.99 1015.63 1015.32 1015.08 1014.92 1014.85 1014.86 1014.93 1015.05 1015.20 1015.36
1017.63 1017.83 1018.00 1018.15 1018.26 1018.34 1018.37 1018.37 1018.36 1018.33 1018.30 1018.29 1018.29 1018.31 1018.34 1018.37 1018.40 1018.40 1018.37 1018.28 1018.15 1017.94 1017.68 1017.35 1016.97 1016.55 1016.12 1015.69 1015.30 1014.95 1014.67 1014.47 1014.36 1014.32 1014.36 1014.46 1014.59 1014.73
1017.19 1017.37 1017.54 1017.69 1017.79 1017.86 1017.88 1017.86 1017.82 1017.76 1017.70 1017.65 1017.62 1017.61 1017.63 1017.65 1017.69 1017.72 1017.72 1017.69 1017.60 1017.46 1017.25 1016.97 1016.63 1016.24 1015.83 1015.40 1014.99 1014.62 1014.31 1014.08 1013.92 1013.84 1013.84 1013.89 1013.98 1014.09
1016.79 1016.97 1017.14 1017.28 1017.39 1017.45 1017.47 1017.45 1017.39 1017.31 1017.23 1017.15 1017.08 1017.04 1017.02 1017.03 1017.04 1017.07 1017.08 1017.07 1017.01 1016.91 1016.74 1016.50 1016.20 1015.85 1015.47 1015.06 1014.66 1014.28 1013.96 1013.69 1013.50 1013.38 1013.33 1013.33 1013.38 1013.44
1016.41 1016.58 1016.75 1016.89 1017.01 1017.07 1017.10 1017.08 1017.03 1016.94 1016.84 1016.74 1016.65 1016.57 1016.51 1016.48 1016.46 1016.46 1016.45 1016.43 1016.38 1016.28 1016.14 1015.93 1015.68 1015.36 1015.01 1014.64 1014.26 1013.89 1013.57 1013.29 1013.07 1012.91 1012.81 1012.76 1012.75 1012.76
1015.98 1016.15 1016.32 1016.46 1016.58 1016.66 1016.70 1016.69 1016.64 1016.56 1016.46 1016.35 1016.23 1016.13 1016.04 1015.97 1015.91 1015.86 1015.82 1015.77 1015.70 1015.60 1015.47 1015.28 1015.05 1014.77 1014.46 1014.12 1013.77 1013.43 1013.11 1012.83 1012.59 1012.40 1012.26 1012.16 1012.10 1012.05
1015.46 1015.63 1015.79 1015.93 1016.05 1016.13 1016.17 1016.18 1016.14 1016.08 1015.99 1015.88 1015.77 1015.65 1015.53 1015.43 1015.34 1015.26 1015.18 1015.09 1015.00 1014.89 1014.75 1014.58 1014.37 1014.13 1013.85 1013.55 1013.23 1012.92 1012.61 1012.33 1012.08 1011.87 1011.69 1011.55 1011.43 1011.33
1014.83 1014.98 1015.13 1015.25 1015.36 1015.44 1015.48 1015.50 1015.48 1015.43 1015.36 1015.28 1015.18 1015.07 1014.96 1014.85 1014.74 1014.64 1014.54 1014.44 1014.33 1014.21 1014.07 1013.91 1013.72 1013.50 1013.25 1012.99 1012.70 1012.41 1012.11 1011.83 1011.57 1011.33 1011.12 1010.93 1010.77 1010.61
1014.10 1014.23 1014.35 1014.46 1014.54 1014.60 1014.64 1014.66 1014.66 1014.64 1014.60 1014.55 1014.49 1014.41 1014.33 1014.25 1014.16 1014.06 1013.96 1013.86 1013.75 1013.63 1013.50 1013.35 1013.18 1012.99 1012.77 1012.52 1012.26 1011.98 1011.69 1011.41 1011.13 1010.86 1010.61 1010.38 1010.16 1009.95
1013.35 1013.46 1013.55 1013.63 1013.68 1013.72 1013.75 1013.77 1013.79 1013.79 1013.80 1013.80 1013.79 1013.77 1013.74 1013.70 1013.66 1013.60 1013.53 1013.45 1013.36 1013.26 1013.14 1013.01 1012.85 1012.68 1012.47 1012.24 1011.98 1011.70 1011.41 1011.11 1010.80 1010.50 1010.21 1009.92 1009.65 1009.39
1012.70 1012.80 1012.86 1012.91 1012.94 1012.96 1012.97 1012.99 1013.02 1013.06 1013.11 1013.16 1013.21 1013.27 1013.31 1013.34 1013.35 1013.34 1013.32 1013.28 1013.22 1013.14 1013.04 1012.92 1012.78 1012.61 1012.41 1012.17 1011.91 1011.62 1011.30 1010.97 1010.62 1010.28 1009.93 1009.60 1009.28 1008.97
1012.29 1012.37 1012.42 1012.44 1012.45 1012.45 1012.46 1012.48 1012.53 1012.60 1012.69 1012.80 1012.92 1013.04 1013.15 1013.24 1013.32 1013.37 1013.39 1013.39 1013.36 1013.30 1013.22 1013.10 1012.96 1012.78 1012.57 1012.32 1012.03 1011.71 1011.36 1010.98 1010.59 1010.20 1009.80 1009.42 1009.04 1008.69
1012.21 1012.28 1012.32 1012.33 1012.33 1012.33 1012.34 1012.37 1012.43 1012.53 1012.66 1012.82 1012.99 1013.16 1013.33 1013.47 1013.60 1013.69 1013.74 1013.76 1013.74 1013.69 1013.61 1013.49 1013.33 1013.13 1012.89 1012.61 1012.28 1011.92 1011.53 1011.11 1010.67 1010.23 1009.78 1009.35 1008.93 1008.54
1012.49 1012.57 1012.61 1012.62 1012.62 1012.62 1012.64 1012.68 1012.77 1012.89 1013.05 1013.23 1013.43 1013.64 1013.83 1014.00 1014.14 1014.24 1014.30 1014.31 1014.28 1014.22 1014.11 1013.96 1013.77 1013.54 1013.26 1012.94 1012.58 1012.18 1011.74 1011.28 1010.80 1010.31 1009.82 1009.35 1008.90 1008.47
Thickness
5646 5646 5645 5645 5644 5644 5643 5641 5637 5632 5632 5635 5637 5639 5639 5639 5638 5638 5638 5638 5638 5640 5641 5640 5639 5637 5636 5636 5636 5636 5636 5636 5635 5635 5635 5635 5635 5636
5643 5642 5642 5641 5641 5640 5639 5637 5636 5633 5629 5631 5632 5633 5633 5634 5633 5633 5633 5633 5633 5635 5636 5636 5634 5632 5631 5631 5631 5631 5631 5631 5630 5630 5630 5630 5630 5630
5639 5638 5638 5637 5636 5635 5634 5633 5631 5629 5627 5627 5627 5628 5628 5628 5628 5628 5628 5628 5628 5629 5630 5630 5628 5627 5626 5625 5626 5626 5626 5626 5626 5625 5625 5625 5625 5625
5634 5634 5633 5633 5632 5631 5629 5628 5627 5626 5624 5622 5622 5622 5622 5623 5623 5623 5623 5623 5622 5623 5623 5623 5623 5622 5622 5621 5621 5621 5621 5621 5621 5620 5620 5620 5620 5619
5630 5629 5629 5628 5627 5626 5625 5624 5622 5622 5620 5618 5616 5616 5616 5616 5616 5616 5617 5616 5617 5617 5617 5617 5617 5617 5617 5617 5617 5617 5617 5616 5616 5615 5615 5614 5614 5614
5625 5625 5625 5624 5623 5622 5621 5620 5618 5616 5614 5612 5610 5609 5609 5609 5609 5609 5609 5610 5610 5611 5612 5612 5612 5612 5612 5613 5613 5612 5612 5612 5611 5611 5610 5609 5610 5609
5619 5619 5620 5620 5620 5619 5618 5615 5614 5611 5609 5606 5605 5604 5603 5602 5603 5603 5603 5603 5604 5605 5605 5606 5607 5607 5607 5608 5608 5608 5608 5608 5607 5606 5606 5605 5605 5605
5613 5613 5614 5614 5614 5614 5613 5612 5611 5608 5604 5602 5600 5599 5600 5599 5599 5598 5597 5597 5597 5599 5599 5599 5600 5601 5602 5602 5603 5603 5603 5603 5602 5602 5601 5601 5600 5600
5606 5606 5607 5608 5607 5606 5606 5606 5605 5604 5603 5600 5598 5597 5597 5597 5595 5593 5592 5592 5593 5593 5591 5593 5593 5594 5596 5597 5597 5598 5598 5598 5598 5597 5596 5596 5595 5595
5600 5600 5600 5600 5601 5600 5599 5598 5597 5597 5596 5595 5595 5595 5595 5594 5593 5592 5590 5587 5586 5586 5585 5585 5587 5588 5591 5592 5592 5593 5593 5593 5593 5592 5591 5591 5590 5590
5593 5594 5593 5593 5595 5595 5592 5590 5589 5589 5590 5590 5590 5589 5590 5589 5588 5585 5582 5581 5580 5580 5579 5579 5580 5581 5583 5585 5587 5587 5587 5587 5587 5586 5586 5585 5585 5584
5585 5585 5586 5587 5588 5588 5586 5584 5582 5583 5582 5582 5581 5582 5582 5582 5582 5581 5579 5576 5575 5575 5574 5572 5573 5573 5576 5578 5579 5579 5580 5580 5580 5579 5579 5579 5578 5577
5578 5577 5578 5579 5580 5580 5579 5578 5578 5577 5575 5573 5573 5573 5573 5574 5574 5574 5575 5574 5572 5571 5571 5568 5567 5566 5568 5569 5570 5571 5571 5572 5572 5572 5572 5572 5571 5570
5571 5571 5572 5572 5572 5571 5571 5571 5571 5569 5567 5565 5564 5565 5565 5566 5567 5567 5568 5568 5568 5568 5566 5564 5563 5562 5561 5560 5562 5563 5563 5563 5563 5563 5563 5564 5564 5563
5564 5565 5564 5564 5564 5563 5564 5563 5562 5560 5559 5558 5558 5558 5560 5560 5560 5559 5560 5560 5560 5560 5559 5559 5558 5557 5555 5555 5555 5554 5554 5555 5555 5555 5555 5555 5555 5556
5555 5555 5556 5555 5555 5555 5555 5554 5554 5553 5553 5552 5552 5552 5552 5552 5551 5551 5551 5551 5550 5551 5552 5552 5551 5550 5548 5548 5547 5547 5547 5547 5547 5547 5546 5546 5547 5547
5546 5545 5545 5544 5544 5544 5544 5544 5544 5544 5544 5544 5544 5544 5543 5543 5543 5543 5542 5542 5542 5543 5543 5542 5542 5541 5541 5540 5539 5540 5539 5539 5539 5539 5538 5538 5540 5540
5536 5535 5534 5534 5534 5534 5534 5534 5535 5535 5535 5536 5536 5536 5536 5535 5535 5535 5534 5533 5534 5534 5534 5533 5532 5531 5530 5531 5532 5533 5532 5531 5531 5530 5529 5529 5532 5533
5525 5525 5525 5525 5525 5525 5525 5525 5525 5526 5527 5527 5527 5527 5527 5527 5526 5526 5525 5525 5525 5525 5525 5524 5523 5523 5523 5525 5525 5524 5524 5523 5522 5520 5520 5521 5523 5525
5515 5515 5515 5515 5515 5515 5514 5515 5515 5516 5516 5517 5518 5518 5518 5518 5517 5516 5516 5516 5516 5515 5514 5514 5514 5514 5515 5517 5515 5514 5514 5514 5512 5512 5512 5511 5512 5514
5505 5505 5505 5505 5504 5504 5504 5505 5505 5505 5506 5506 5507 5508 5508 5508 5507 5507 5506 5506 5506 5505 5505 5505 5505 5505 5504 5503 5503 5504 5504 5504 5504 5503 5502 5501 5502 5503
5495 5495 5495 5494 5494 5494 5494 5494 5494 5494 5494 5495 5496 5496 5497 5497 5497 5497 5496 5496 5495 5495 5495 5495 5493 5493 5492 5493 5495 5495 5494 5494 5494 5494 5494 5494 5493 5495
5485 5485 5484 5484 5483 5483 5483 5483 5483 5483 5483 5483 5484 5485 5485 5485 5486 5486 5486 5485 5485 5484 5484 5483 5482 5481 5482 5482 5483 5484 5483 5483 5484 5484 5485 5485 5486 5486